• In Latvia
  • List of Countries
  • For 7 days
  • Water Temperature
  • Satellite Maps
  • Weather Map
  • Weather Widgets
  • user-avatar
    Login

    Hourly Weather Perth

    Today, 23 October, Monday

    Time Temperature Precipitation Wind Pressure Humidity
    00:00 +18°C° 0 mm 2 mps 758 mmHg 90%
    01:00 +18°C° 0 mm 2 mps 758 mmHg 90%
    02:00 +19°C° 0 mm 1 mps 758 mmHg 90%
    03:00 +19°C° 0 mm 1 mps 758 mmHg 90%
    04:00 +19°C° 0 mm 1 mps 758 mmHg 90%
    05:00 +18°C° 0 mm 2 mps 758 mmHg 91%
    06:00 +19°C° 0 mm 2 mps 758 mmHg 86%
    07:00 +20°C° 0 mm 2 mps 758 mmHg 80%
    08:00 +21°C° 0 mm 3 mps 759 mmHg 75%
    09:00 +24°C° 0 mm 3 mps 759 mmHg 69%
    10:00 +25°C° 0 mm 3 mps 759 mmHg 63%
    11:00 +27°C° 0 mm 3 mps 759 mmHg 57%
    12:00 +27°C° 0 mm 4 mps 759 mmHg 56%
    13:00 +27°C° 0 mm 5 mps 759 mmHg 56%
    14:00 +27°C° 0 mm 5 mps 758 mmHg 55%
    15:00 +26°C° 0 mm 5 mps 759 mmHg 60%
    16:00 +23°C° 0 mm 6 mps 759 mmHg 64%
    17:00 +22°C° 0 mm 6 mps 759 mmHg 68%
    18:00 +21°C° 0 mm 5 mps 759 mmHg 75%
    19:00 +19°C° 0 mm 5 mps 760 mmHg 81%
    20:00 +18°C° 0 mm 4 mps 760 mmHg 88%
    21:00 +17°C° 0 mm 4 mps 761 mmHg 89%
    22:00 +17°C° 0 mm 4 mps 761 mmHg 91%
    23:00 +16°C° 0 mm 3 mps 761 mmHg 92%

    Tomorrow, 24 October, Tuesday

    Time Temperature Precipitation Wind Pressure Humidity
    00:00 +16°C° 0 mm 3 mps 761 mmHg 92%
    01:00 +16°C° 0 mm 3 mps 761 mmHg 92%
    02:00 +14°C° 0 mm 3 mps 761 mmHg 93%
    03:00 +14°C° 0 mm 3 mps 761 mmHg 92%
    04:00 +14°C° 0 mm 3 mps 761 mmHg 92%
    05:00 +14°C° 0 mm 3 mps 761 mmHg 92%
    06:00 +16°C° 0 mm 3 mps 761 mmHg 86%
    07:00 +17°C° 0 mm 2 mps 761 mmHg 81%
    08:00 +18°C° 0 mm 2 mps 762 mmHg 76%
    09:00 +20°C° 0 mm 2 mps 762 mmHg 64%
    10:00 +23°C° 0 mm 2 mps 762 mmHg 53%
    11:00 +26°C° 0 mm 2 mps 761 mmHg 42%
    12:00 +26°C° 0 mm 3 mps 761 mmHg 41%
    13:00 +26°C° 0 mm 3 mps 760 mmHg 40%
    14:00 +26°C° 0 mm 4 mps 760 mmHg 39%
    15:00 +25°C° 0 mm 4 mps 760 mmHg 43%
    16:00 +23°C° 0 mm 5 mps 760 mmHg 48%
    17:00 +21°C° 0 mm 5 mps 760 mmHg 52%
    18:00 +20°C° 0 mm 5 mps 760 mmHg 60%
    19:00 +18°C° 0 mm 4 mps 761 mmHg 68%
    20:00 +17°C° 0 mm 4 mps 762 mmHg 76%
    21:00 +15°C° 0 mm 4 mps 762 mmHg 80%
    22:00 +15°C° 0 mm 4 mps 762 mmHg 85%
    23:00 +16°C° 0 mm 3 mps 762 mmHg 89%

    Day after tomorrow, 25 October, Wednesday

    Time Temperature Precipitation Wind Pressure Humidity
    00:00 +14°C° 0 mm 3 mps 762 mmHg 89%
    01:00 +15°C° 0 mm 2 mps 762 mmHg 89%
    02:00 +14°C° 0 mm 2 mps 761 mmHg 90%
    03:00 +14°C° 0 mm 1 mps 761 mmHg 89%
    04:00 +14°C° 0 mm 1 mps 761 mmHg 89%
    05:00 +13°C° 0 mm 1 mps 762 mmHg 89%
    06:00 +15°C° 0 mm 1 mps 762 mmHg 81%
    07:00 +18°C° 0 mm 1 mps 762 mmHg 73%
    08:00 +20°C° 0 mm 1 mps 762 mmHg 65%
    09:00 +21°C° 0 mm 2 mps 762 mmHg 60%
    10:00 +23°C° 0 mm 2 mps 762 mmHg 55%
    11:00 +25°C° 0 mm 3 mps 762 mmHg 50%
    12:00 +25°C° 0 mm 3 mps 761 mmHg 49%
    13:00 +26°C° 0 mm 4 mps 761 mmHg 49%
    14:00 +26°C° 0 mm 4 mps 760 mmHg 49%
    15:00 +25°C° 0 mm 4 mps 760 mmHg 53%
    16:00 +23°C° 0 mm 4 mps 760 mmHg 57%
    17:00 +22°C° 0 mm 4 mps 760 mmHg 61%
    18:00 +20°C° 0 mm 4 mps 760 mmHg 70%
    19:00 +19°C° 0 mm 3 mps 760 mmHg 80%
    20:00 +17°C° 0 mm 3 mps 761 mmHg 89%
    21:00 +17°C° 0 mm 3 mps 761 mmHg 90%
    22:00 +17°C° 0 mm 2 mps 761 mmHg 91%
    23:00 +16°C° 0 mm 2 mps 761 mmHg 93%

    26 October, Thursday

    Time Temperature Precipitation Wind Pressure Humidity
    00:00 +16°C° 0 mm 3 mps 760 mmHg 93%
    01:00 +16°C° 0 mm 3 mps 759 mmHg 93%
    02:00 +16°C° 0 mm 3 mps 758 mmHg 94%
    03:00 +16°C° 0.1 mm 3 mps 758 mmHg 93%
    04:00 +17°C° 0.1 mm 4 mps 758 mmHg 92%
    05:00 +17°C° 0.1 mm 4 mps 758 mmHg 91%
    06:00 +17°C° 0.2 mm 5 mps 758 mmHg 87%
    07:00 +19°C° 0.2 mm 5 mps 758 mmHg 83%
    08:00 +19°C° 0.2 mm 6 mps 758 mmHg 79%
    09:00 +20°C° 0.2 mm 7 mps 757 mmHg 72%
    10:00 +21°C° 0.2 mm 7 mps 757 mmHg 66%
    11:00 +22°C° 0.2 mm 8 mps 757 mmHg 59%
    12:00 +21°C° 0.2 mm 9 mps 756 mmHg 63%
    13:00 +19°C° 0.2 mm 9 mps 756 mmHg 66%
    14:00 +18°C° 0.2 mm 9 mps 756 mmHg 70%
    15:00 +17°C° 0.1 mm 9 mps 756 mmHg 68%
    16:00 +17°C° 0.1 mm 8 mps 757 mmHg 67%
    17:00 +16°C° 0.1 mm 7 mps 757 mmHg 65%
    18:00 +15°C° 0 mm 7 mps 758 mmHg 65%
    19:00 +14°C° 0 mm 6 mps 758 mmHg 66%
    20:00 +14°C° 0 mm 5 mps 759 mmHg 66%
    21:00 +13°C° 0 mm 5 mps 759 mmHg 68%
    22:00 +13°C° 0 mm 4 mps 759 mmHg 70%
    23:00 +12°C° 0 mm 4 mps 759 mmHg 73%

    27 October, Friday

    Time Temperature Precipitation Wind Pressure Humidity
    00:00 +12°C° 0 mm 4 mps 759 mmHg 73%
    01:00 +12°C° 0 mm 4 mps 759 mmHg 73%
    02:00 +12°C° 0 mm 4 mps 759 mmHg 73%
    03:00 +13°C° 0.1 mm 4 mps 759 mmHg 73%
    04:00 +13°C° 0.1 mm 4 mps 759 mmHg 74%
    05:00 +13°C° 0.1 mm 4 mps 759 mmHg 74%
    06:00 +14°C° 0.1 mm 4 mps 759 mmHg 70%
    07:00 +15°C° 0.1 mm 5 mps 760 mmHg 66%
    08:00 +16°C° 0.1 mm 5 mps 760 mmHg 63%
    09:00 +16°C° 0.1 mm 5 mps 760 mmHg 64%
    10:00 +16°C° 0.1 mm 5 mps 760 mmHg 65%
    11:00 +16°C° 0.1 mm 5 mps 760 mmHg 66%
    12:00 +16°C° 0.1 mm 6 mps 759 mmHg 66%
    13:00 +17°C° 0.1 mm 6 mps 759 mmHg 65%
    14:00 +17°C° 0.1 mm 6 mps 759 mmHg 65%
    15:00 +17°C° 0.1 mm 6 mps 759 mmHg 65%
    16:00 +17°C° 0.1 mm 6 mps 759 mmHg 65%
    17:00 +17°C° 0.1 mm 6 mps 759 mmHg 66%
    18:00 +16°C° 0.1 mm 6 mps 759 mmHg 69%
    19:00 +16°C° 0.1 mm 5 mps 760 mmHg 73%
    20:00 +15°C° 0.1 mm 5 mps 760 mmHg 77%
    21:00 +15°C° 0 mm 5 mps 760 mmHg 78%
    22:00 +15°C° 0 mm 6 mps 760 mmHg 78%
    23:00 +15°C° 0 mm 6 mps 760 mmHg 79%

    28 October, Saturday

    Time Temperature Precipitation Wind Pressure Humidity
    00:00 +14°C° 0 mm 6 mps 759 mmHg 79%
    01:00 +14°C° 0 mm 6 mps 759 mmHg 80%
    02:00 +14°C° 0 mm 6 mps 759 mmHg 80%
    03:00 +14°C° 0 mm 6 mps 759 mmHg 80%
    04:00 +14°C° 0 mm 5 mps 759 mmHg 81%
    05:00 +15°C° 0 mm 5 mps 759 mmHg 81%
    06:00 +15°C° 0 mm 5 mps 759 mmHg 78%
    07:00 +16°C° 0 mm 5 mps 759 mmHg 75%
    08:00 +17°C° 0 mm 5 mps 760 mmHg 72%
    09:00 +17°C° 0 mm 5 mps 760 mmHg 70%
    10:00 +19°C° 0 mm 5 mps 759 mmHg 69%
    11:00 +19°C° 0 mm 6 mps 759 mmHg 67%
    12:00 +20°C° 0 mm 6 mps 759 mmHg 65%
    13:00 +20°C° 0 mm 6 mps 759 mmHg 63%
    14:00 +21°C° 0 mm 7 mps 758 mmHg 62%
    15:00 +20°C° 0 mm 7 mps 759 mmHg 64%
    16:00 +20°C° 0 mm 7 mps 759 mmHg 67%
    17:00 +18°C° 0 mm 7 mps 759 mmHg 70%
    18:00 +17°C° 0 mm 7 mps 759 mmHg 72%
    19:00 +17°C° 0 mm 7 mps 760 mmHg 75%
    20:00 +16°C° 0 mm 7 mps 760 mmHg 77%
    21:00 +16°C° 0.1 mm 7 mps 760 mmHg 77%
    22:00 +16°C° 0.1 mm 6 mps 760 mmHg 78%
    23:00 +16°C° 0.1 mm 6 mps 760 mmHg 78%

    29 October, Sunday

    Time Temperature Precipitation Wind Pressure Humidity
    00:00 +16°C° 0.1 mm 6 mps 760 mmHg 78%
    01:00 +16°C° 0.1 mm 6 mps 760 mmHg 78%
    02:00 +16°C° 0.1 mm 6 mps 760 mmHg 78%
    03:00 +16°C° 0 mm 5 mps 760 mmHg 79%
    04:00 +16°C° 0 mm 5 mps 761 mmHg 79%
    05:00 +15°C° 0 mm 4 mps 761 mmHg 80%
    06:00 +17°C° 0 mm 4 mps 762 mmHg 75%
    07:00 +18°C° 0 mm 4 mps 762 mmHg 69%
    08:00 +19°C° 0 mm 4 mps 763 mmHg 64%
    09:00 +20°C° 0 mm 4 mps 763 mmHg 58%
    10:00 +21°C° 0 mm 4 mps 763 mmHg 53%
    11:00 +22°C° 0 mm 4 mps 763 mmHg 47%
    12:00 +23°C° 0 mm 4 mps 762 mmHg 46%
    13:00 +23°C° 0 mm 4 mps 762 mmHg 44%
    14:00 +25°C° 0 mm 4 mps 762 mmHg 43%
    15:00 +23°C° 0 mm 4 mps 762 mmHg 46%
    16:00 +22°C° 0 mm 4 mps 762 mmHg 48%
    17:00 +21°C° 0 mm 4 mps 762 mmHg 51%
    18:00 +20°C° 0 mm 4 mps 763 mmHg 58%
    19:00 +18°C° 0 mm 3 mps 763 mmHg 66%
    20:00 +16°C° 0 mm 3 mps 763 mmHg 73%
    21:00 +14°C° 0 mm 3 mps 764 mmHg 76%
    22:00 +14°C° 0 mm 3 mps 764 mmHg 78%
    23:00 +14°C° 0 mm 2 mps 764 mmHg 80%
    Show more